Regional Weather Roundup
Issued by NWS New Orleans/Baton Rouge, LA

Current Version | Previous Version | Text Only | Print | Product List | Glossary On
Versions: 1 2 3 4 5 6 7 8 9 10 11 12 13 14 15 16 17 18 19 20 21 22 23 24 25 26 27 28
000
ASUS44 KLIX 292011
RWRLIX
NEW ORLEANS REGIONAL WEATHER ROUNDUP
NATIONAL WEATHER SERVICE NEW ORLEANS LA
300 PM CDT MON AUG 29 2016

NOTE: "FAIR" INDICATES FEW OR NO CLOUDS BELOW 12,000 FEET WITH NO
      SIGNIFICANT WEATHER AND/OR OBSTRUCTIONS TO VISIBILITY.
      SKY/WX - SKY CONDITION AND SIGNIFICANT WEATHER.
      TMP - AIR TEMPERATURE.     DP    - DEWPOINT TEMPERATURE.
      RH  - RELATIVE HUMIDITY.   PRES  - PRESSURE.
      HI  - HEAT INDEX.          WCI   - WIND CHILL INDEX.

*  THESE STATIONS ARE NOT NWS OR FAA STATIONS AND ARE NOT UNDER
   NWS QUALITY CONTROL.

LAZ038-040-048-061>063-065>067-069-292100-
SOUTHEAST LOUISIANA

CITY           SKY/WX    TMP DP  RH WIND       PRES   REMARKS
N.O. AUDUBON     N/A     91  78  66 MISG        N/A  HX 106
N.O. INTL ARPT CLOUDY    91  74  57 E10       29.95F THUNDER HX 100
N.O. LAKEFRONT CLOUDY    89  75  63 E15       29.96F HX  99
N.O. DOWNTOWN*   N/A     87  77  72 S8        29.97F HX  99
RESERVE*         N/A     83  76  80 CALM      29.96F
SLIDELL        LGT RAIN  83  74  74 CALM      29.95F
BATON ROUGE    PTSUNNY   82  75  79 W9        29.97S
BOOTHVILLE       N/A     85  78  80 E12       29.96  HX  96
BELLE CHASSE   CLOUDY    81  77  88 E6        29.96F
BOGALUSA*        N/A     96  67  39 E12       29.98F HX  99
GALLIANO*      CLOUDY    83  83 100 CALM      29.95F HX  99
NEW ROADS*     TSTM      75  73  91 S8        30.00S
GONZALES*        N/A     79  73  79 CALM      29.96F
HAMMOND*       CLOUDY    95  68  41 NE8       29.95F HX  99
HOUMA*         MOSUNNY   77  75  94 CALM      29.95F
PORT FOURCHON* PTCLDY    84  77  79 N3        29.95F

$$

MSZ070-080>082-292100-
SOUTHERN MISSISSIPPI

CITY           SKY/WX    TMP DP  RH WIND       PRES   REMARKS
MCCOMB         MOSUNNY   91  69  48 E7        29.98F HX  96
GULFPORT       SUNNY     91  76  61 SE12      29.96F HX 103
BILOXI         MOSUNNY   92  72  51 E9        29.96F HX 100
PASCAGOULA     MOSUNNY   91  73  55 E12       29.96F HX  99
STENNIS ARPT*  MOSUNNY   90  72  55 SE9G16    29.97F HX  96

$$

COASTAL OBSERVATIONS
LAKE AND NEARSHORE STATIONS

STATION/POSITION TIME  TEMP    WIND        PRES    WAVE
                       AIR SEA DIR/SP/G            HT/PER
                 (UTC) (F)     (DEG/KT/KT) (MB)    (FT/S)
PASCAGOULA       1900   89      70/  7/  9 1015.4
WAVELAND YACHT   1900   86 85  130/ 10/ 13 1015.4
GRAND ISLE       1900   85 85   80/  7/ 10 1015.1
SOUTHWEST PASS   1900           60/ 12/ 15   N/A
NEW CANAL        1900   87 85   80/ 10/ 13 1014.5
SHELL BEACH      1900   82 85  110/  8/ 10 1015.3

OFFSHORE STATIONS

STATION/POSITION TIME  TEMP    WIND        PRES    WAVE
                       AIR SEA DIR/SP/G            HT/PER
                 (UTC) (F)     (DEG/KT/KT) (MB)    (FT/S)
64 S DAUPHIN ISL 1900   85 86   60/ 16/ 19 1014.0

$$





USA.gov is the U.S. government's official web portal to all federal, state and local government web resources and services.